GW7085 Weather Reports


Display with metric or nautical units.
time (UTC)temp
F
wind
direction
speed
MPH
gust
MPH
rain 1hr
in
rain 24hr
in
rain mn
in
humidity
%
barometer
mb
20260906064436 74 27 0.0 0.0 0.00 0.00 0.00 88 1011.9
20260906063935 74 27 0.0 0.0 0.00 0.00 0.00 88 1011.7
20260906063431 74 27 0.0 0.0 0.00 0.00 0.00 87 1011.9
20260906062926 74 27 0.0 0.0 0.00 0.00 0.00 88 1012.2
20260906062426 74 27 0.0 0.0 0.00 0.00 0.00 87 1012.2
20260906061921 74 27 0.0 0.0 0.00 0.00 0.00 87 1012.4
20260906061418 74 27 0.0 0.0 0.00 0.00 0.00 87 1012.3
20260906060918 74 27 0.0 0.0 0.00 0.00 0.00 87 1012.4
20260906060415 74 27 0.0 0.0 0.00 0.00 0.00 87 1012.5
20260906055911 74 27 0.0 0.0 0.00 0.00 0.00 86 1012.4
20260906055407 74 27 0.0 0.0 0.00 0.00 0.00 86 1012.5
20260906054902 75 27 0.0 0.0 0.00 0.00 0.00 86 1012.5
20260906054356 75 27 0.0 0.0 0.00 0.00 0.00 85 1012.4
20260906053853 75 27 0.0 0.0 0.00 0.00 0.00 85 1012.4
20260906053348 75 27 0.0 0.0 0.00 0.00 0.00 85 1012.5
20260906052844 75 26 1.0 1.0 0.00 0.00 0.00 84 1012.6
20260906052340 75 30 0.0 1.0 0.00 0.00 0.00 85 1012.8
20260906051837 75 41 0.0 0.0 0.00 0.00 0.00 85 1013.0
20260906051336 75 41 0.0 0.0 0.00 0.00 0.00 85 1012.9
20260906050832 75 41 0.0 0.0 0.00 0.00 0.00 84 1012.9
20260906050327 75 41 0.0 0.0 0.00 0.00 0.00 83 1013.0
20260906045826 76 41 0.0 0.0 0.00 0.00 0.00 83 1012.9
20260906045320 76 41 0.0 1.0 0.00 0.00 0.00 82 1012.9
20260906044817 76 20 0.0 1.0 0.00 0.00 0.00 82 1012.9
20260906044317 76 302 0.0 1.0 0.00 0.00 0.00 82 1013.1
20260906043812 76 303 0.0 1.0 0.00 0.00 0.00 82 1012.8
20260906043309 76 317 1.0 2.0 0.00 0.00 0.00 82 1013.1
20260906042808 76 318 0.0 1.0 0.00 0.00 0.00 82 1012.9
20260906042307 76 319 0.0 1.0 0.00 0.00 0.00 82 1013.1
20260906041803 76 322 1.0 2.0 0.00 0.00 0.00 82 1013.2
20260906041258 75 39 1.0 1.0 0.00 0.00 0.00 82 1013.4
20260906040754 75 80 1.0 1.0 0.00 0.00 0.00 82 1013.2
20260906040249 75 102 0.0 1.0 0.00 0.00 0.00 82 1013.2
20260906035744 75 99 0.0 0.0 0.00 0.00 0.00 82 1013.3
20260906035240 75 100 1.0 1.0 0.00 0.00 0.00 82 1013.5
20260906034739 75 80 0.0 1.0 0.00 0.00 0.00 82 1013.3
20260906034234 75 81 0.0 0.0 0.00 0.00 0.00 82 1013.3
20260906033730 76 81 0.0 0.0 0.00 0.00 0.00 80 1013.5
20260906033230 76 81 0.0 1.0 0.00 0.00 0.00 80 1013.5
20260906032727 76 126 0.0 1.0 0.00 0.00 0.00 80 1013.5
20260906032226 76 126 0.0 1.0 0.00 0.00 0.00 80 1013.5
20260906031721 75 124 0.0 0.0 0.00 0.00 0.00 80 1013.4
20260906031217 76 122 0.0 0.0 0.00 0.00 0.00 80 1013.7
20260906030717 76 122 0.0 0.0 0.00 0.00 0.00 79 1013.4
20260906030212 76 122 0.0 1.0 0.00 0.00 0.00 79 1013.7
20260906025711 77 124 0.0 0.0 0.00 0.00 0.00 78 1013.3
20260906025206 77 125 0.0 0.0 0.00 0.00 0.00 77 1013.2
20260906024705 77 125 0.0 0.0 0.00 0.00 0.00 77 1013.1
20260906024204 77 122 1.0 2.0 0.00 0.00 0.00 77 1013.3
20260906023701 77 115 0.0 0.0 0.00 0.00 0.00 77 1012.9
20260906023201 77 115 0.0 0.0 0.00 0.00 0.00 77 1013.1
20260906022655 76 115 0.0 0.0 0.00 0.00 0.00 77 1013.1
20260906022151 76 115 0.0 0.0 0.00 0.00 0.00 77 1013.0
20260906021648 77 115 0.0 0.0 0.00 0.00 0.00 76 1013.1
20260906021146 77 115 0.0 0.0 0.00 0.00 0.00 75 1013.1
20260906020641 77 115 0.0 0.0 0.00 0.00 0.00 75 1012.8
20260906020136 77 115 0.0 0.0 0.00 0.00 0.00 74 1013.0
20260906015636 77 115 0.0 0.0 0.00 0.00 0.00 74 1013.2
20260906015134 77 115 0.0 0.0 0.00 0.00 0.00 74 1013.0
20260906014635 77 114 0.0 0.0 0.00 0.00 0.00 74 1012.9
20260906014131 77 114 0.0 0.0 0.00 0.00 0.00 73 1012.9
20260906013626 77 114 0.0 0.0 0.00 0.00 0.00 73 1013.1
20260906013122 77 115 0.0 0.0 0.00 0.00 0.00 74 1013.1
20260906012616 77 114 0.0 0.0 0.00 0.00 0.00 73 1013.0
20260906012116 77 114 0.0 0.0 0.00 0.00 0.00 71 1013.0
20260906011612 77 114 0.0 0.0 0.00 0.00 0.00 71 1012.8
20260906011113 78 114 0.0 0.0 0.00 0.00 0.00 70 1012.8
20260906010608 78 114 0.0 0.0 0.00 0.00 0.00 69 1012.8
20260906010104 78 114 0.0 0.0 0.00 0.00 0.00 69 1012.5
20260906005603 78 114 0.0 0.0 0.00 0.00 0.00 67 1012.9
20260906005103 78 114 0.0 0.0 0.00 0.00 0.00 67 1012.8
20260906004602 79 114 0.0 0.0 0.00 0.00 0.00 66 1012.8
20260906004057 79 115 0.0 0.0 0.00 0.00 0.00 65 1012.5
20260906003552 79 115 0.0 0.0 0.00 0.00 0.00 64 1012.5
20260906003048 79 115 0.0 0.0 0.00 0.00 0.00 64 1012.4
20260906002548 79 114 0.0 0.0 0.00 0.00 0.00 64 1012.5
20260906002043 80 114 0.0 0.0 0.00 0.00 0.00 63 1012.3
20260906001539 80 114 0.0 0.0 0.00 0.00 0.00 63 1012.4
20260906001039 80 114 0.0 0.0 0.00 0.00 0.00 62 1012.4
20260906000535 80 114 0.0 0.0 0.00 0.00 0.00 62 1012.5
20260906000030 81 115 0.0 0.0 0.00 0.00 0.00 61 1012.2
20260905235529 81 115 0.0 0.0 0.00 0.00 0.00 59 1012.2
20260905235025 82 114 0.0 0.0 0.00 0.00 0.00 58 1012.2
20260905234520 82 114 0.0 0.0 0.00 0.00 0.00 57 1012.0
20260905234020 83 114 0.0 0.0 0.00 0.00 0.00 56 1011.9
20260905233515 83 114 0.0 0.0 0.00 0.00 0.00 54 1011.8
20260905233015 84 116 0.0 1.0 0.00 0.00 0.00 53 1011.5
20260905232510 85 76 0.0 0.0 0.00 0.00 0.00 52 1011.7
20260905232006 86 54 0.0 0.0 0.00 0.00 0.00 50 1011.5
20260905231501 86 60 0.0 0.0 0.00 0.00 0.00 52 1011.4
20260905230958 86 59 0.0 1.0 0.00 0.00 0.00 51 1011.3
20260905230456 86 49 0.0 1.0 0.00 0.00 0.00 52 1011.4
20260905225954 86 49 1.0 1.0 0.00 0.00 0.00 54 1011.5
20260905225449 86 71 0.0 1.0 0.00 0.00 0.00 55 1011.5
20260905224944 85 85 0.0 1.0 0.00 0.00 0.00 58 1011.7
20260905224440 84 93 0.0 1.0 0.00 0.00 0.00 57 1011.4
20260905223939 84 304 1.0 2.0 0.00 0.00 0.00 56 1011.7
20260905223437 85 53 1.0 3.0 0.00 0.00 0.00 56 1011.4
20260905222932 85 74 0.0 1.0 0.00 0.00 0.00 56 1011.5
20260905222432 85 8 1.0 2.0 0.00 0.00 0.00 57 1011.3
20260905221927 85 53 0.0 1.0 0.00 0.00 0.00 57 1011.5
20260905221424 85 50 1.0 2.0 0.00 0.00 0.00 58 1011.4
20260905220920 85 36 0.0 1.0 0.00 0.00 0.00 58 1011.4
20260905220416 85 29 1.0 2.0 0.00 0.00 0.00 59 1011.5
20260905215914 85 56 0.0 1.0 0.00 0.00 0.00 60 1011.4
20260905215410 85 49 1.0 1.0 0.00 0.00 0.00 61 1011.8
20260905214907 85 309 1.0 1.0 0.00 0.00 0.00 60 1011.5
20260905214402 85 104 1.0 2.0 0.00 0.00 0.00 60 1011.8
20260905213856 84 268 2.0 2.0 0.00 0.00 0.00 61 1011.8
20260905213353 84 51 0.0 1.0 0.00 0.00 0.00 62 1011.8
20260905212853 84 12 0.0 1.0 0.00 0.00 0.00 62 1012.0
20260905212348 83 27 0.0 0.0 0.00 0.00 0.00 63 1011.9
20260905211847 83 27 0.0 1.0 0.00 0.00 0.00 62 1012.2
20260905211343 83 55 0.0 0.0 0.00 0.00 0.00 63 1012.5
20260905210840 83 68 0.0 0.0 0.00 0.00 0.00 63 1012.7
20260905210340 83 51 0.0 2.0 0.00 0.00 0.00 64 1012.8
20260905205838 83 311 2.0 3.0 0.00 0.00 0.00 63 1012.6
20260905205333 83 63 0.0 2.0 0.00 0.00 0.00 63 1012.5
20260905204832 83 275 2.0 3.0 0.00 0.00 0.00 62 1012.6
20260905204329 83 64 0.0 2.0 0.00 0.00 0.00 62 1012.7
20260905203827 83 62 1.0 2.0 0.00 0.00 0.00 61 1012.6
20260905203323 83 54 0.0 1.0 0.00 0.00 0.00 61 1012.2
20260905202819 84 55 0.0 2.0 0.00 0.00 0.00 59 1012.1
20260905202313 84 278 1.0 4.0 0.00 0.00 0.00 58 1012.1
20260905201809 84 54 1.0 2.0 0.00 0.00 0.00 59 1012.1
20260905201305 84 92 0.0 1.0 0.00 0.00 0.00 58 1012.1
20260905200804 84 60 1.0 3.0 0.00 0.00 0.00 58 1012.3
20260905200301 85 328 2.0 3.0 0.00 0.00 0.00 58 1012.5
20260905195758 85 55 0.0 2.0 0.00 0.00 0.00 58 1012.4
20260905195254 86 35 1.0 3.0 0.00 0.00 0.00 58 1012.6
20260905194749 87 62 1.0 1.0 0.00 0.00 0.00 57 1012.3
20260905194249 87 82 0.0 2.0 0.00 0.00 0.00 54 1012.1
20260905193748 88 28 2.0 3.0 0.00 0.00 0.00 53 1011.9
20260905193243 90 55 2.0 4.0 0.00 0.00 0.00 50 1011.7
20260905192738 91 38 1.0 2.0 0.00 0.00 0.00 47 1011.3
20260905192235 93 84 0.0 3.0 0.00 0.00 0.00 46 1011.5
20260905191734 94 63 0.0 1.0 0.00 0.00 0.00 45 1011.7
20260905191232 96 269 2.0 3.0 0.00 0.00 0.00 42 1011.3
20260905190731 98 51 1.0 2.0 0.00 0.00 0.00 42 1011.3
20260905190230 98 43 1.0 2.0 0.00 0.00 0.00 43 1011.2
20260905185730 98 237 1.0 3.0 0.00 0.00 0.00 41 1011.3
20260905185225 99 356 1.0 3.0 0.00 0.00 0.00 40 1011.7
20260905184719 98 71 0.0 1.0 0.00 0.00 0.00 38 1011.8
20260905184218 98 58 1.0 1.0 0.00 0.00 0.00 40 1011.9
20260905183718 97 131 1.0 3.0 0.00 0.00 0.00 43 1012.0
20260905183213 96 357 2.0 4.0 0.00 0.00 0.00 43 1012.2
20260905182713 96 56 2.0 2.0 0.00 0.00 0.00 43 1012.0
20260905182212 96 355 1.0 2.0 0.00 0.00 0.00 45 1012.0
20260905181708 96 277 1.0 2.0 0.00 0.00 0.00 46 1012.1
20260905181207 95 72 0.0 1.0 0.00 0.00 0.00 47 1012.1
20260905180701 96 110 0.0 1.0 0.00 0.00 0.00 45 1012.3
20260905180157 96 177 1.0 1.0 0.00 0.00 0.00 42 1012.6
20260905175656 96 53 0.0 2.0 0.00 0.00 0.00 46 1012.6
20260905175151 96 29 1.0 1.0 0.00 0.00 0.00 46 1012.8
20260905174647 97 55 1.0 2.0 0.00 0.00 0.00 45 1012.8
20260905174142 96 53 0.0 3.0 0.00 0.00 0.00 45 1012.9
20260905173638 95 294 0.0 2.0 0.00 0.00 0.00 47 1013.0
20260905173134 97 3 2.0 3.0 0.00 0.00 0.00 45 1013.3
20260905172632 97 194 1.0 1.0 0.00 0.00 0.00 47 1013.5
20260905172127 96 268 2.0 3.0 0.00 0.00 0.00 45 1013.4
20260905171624 97 242 2.0 3.0 0.00 0.00 0.00 46 1013.3
20260905171119 97 293 1.0 2.0 0.00 0.00 0.00 47 1013.5
20260905170616 97 227 1.0 2.0 0.00 0.00 0.00 49 1013.5
20260905170112 97 137 0.0 1.0 0.00 0.00 0.00 46 1013.7
20260905165611 96 129 0.0 2.0 0.00 0.00 0.00 47 1014.0
20260905165107 97 180 1.0 1.0 0.00 0.00 0.00 49 1013.8
20260905164602 96 71 0.0 1.0 0.00 0.00 0.00 46 1013.9
20260905164101 96 69 1.0 2.0 0.00 0.00 0.00 48 1014.0
20260905163558 95 88 0.0 1.0 0.00 0.00 0.00 53 1014.0
20260905163054 95 359 3.0 4.0 0.00 0.00 0.00 49 1014.1
20260905162550 95 51 1.0 1.0 0.00 0.00 0.00 51 1014.1
20260905162049 95 14 1.0 2.0 0.00 0.00 0.00 52 1014.3
20260905161549 95 191 1.0 2.0 0.00 0.00 0.00 52 1014.2
20260905161047 94 94 0.0 3.0 0.00 0.00 0.00 54 1014.3
20260905160545 95 359 1.0 3.0 0.00 0.00 0.00 54 1014.3
20260905160045 94 131 1.0 1.0 0.00 0.00 0.00 54 1014.3
20260905155545 94 6 1.0 3.0 0.00 0.00 0.00 55 1014.4
20260905155044 93 119 1.0 1.0 0.00 0.00 0.00 58 1014.5
20260905154539 92 29 1.0 2.0 0.00 0.00 0.00 57 1014.5
20260905154035 93 288 2.0 3.0 0.00 0.00 0.00 56 1014.5
20260905153530 92 151 1.0 1.0 0.00 0.00 0.00 57 1014.3
20260905153030 92 129 0.0 2.0 0.00 0.00 0.00 60 1014.5
20260905152525 93 142 1.0 1.0 0.00 0.00 0.00 57 1014.6
20260905152020 91 143 1.0 1.0 0.00 0.00 0.00 61 1014.6
20260905151515 91 302 2.0 3.0 0.00 0.00 0.00 62 1014.5
20260905151011 90 95 0.0 1.0 0.00 0.00 0.00 63 1014.6
20260905150506 90 92 0.0 1.0 0.00 0.00 0.00 64 1014.7
20260905150003 91 273 0.0 3.0 0.00 0.00 0.00 62 1014.6
20260905145457 90 39 1.0 1.0 0.00 0.00 0.00 63 1014.5
20260905144956 89 135 1.0 1.0 0.00 0.00 0.00 64 1014.7
20260905144452 89 54 1.0 2.0 0.00 0.00 0.00 64 1014.7
20260905143950 89 124 1.0 1.0 0.00 0.00 0.00 66 1014.6
20260905143449 88 59 1.0 1.0 0.00 0.00 0.00 65 1014.4
20260905142944 88 38 1.0 2.0 0.00 0.00 0.00 66 1014.7
20260905142443 87 261 0.0 3.0 0.00 0.00 0.00 68 1014.6
20260905141940 87 68 1.0 2.0 0.00 0.00 0.00 66 1014.5
20260905141439 86 50 1.0 3.0 0.00 0.00 0.00 68 1014.6
20260905140936 87 286 2.0 3.0 0.00 0.00 0.00 66 1014.9
20260905140431 87 142 0.0 1.0 0.00 0.00 0.00 68 1014.8
20260905135930 87 60 1.0 2.0 0.00 0.00 0.00 67 1014.7
20260905135425 86 123 0.0 0.0 0.00 0.00 0.00 69 1014.6
20260905134921 86 145 1.0 1.0 0.00 0.00 0.00 69 1014.5
20260905134420 84 97 0.0 1.0 0.00 0.00 0.00 71 1014.6
20260905133915 85 333 1.0 2.0 0.00 0.00 0.00 71 1014.6
20260905133415 85 117 0.0 1.0 0.00 0.00 0.00 71 1014.7
20260905132914 84 143 1.0 1.0 0.00 0.00 0.00 72 1014.8
20260905132409 84 83 0.0 1.0 0.00 0.00 0.00 74 1014.8
20260905131904 83 155 1.0 2.0 0.00 0.00 0.00 74 1014.9
20260905131400 82 11 1.0 2.0 0.00 0.00 0.00 74 1015.0
20260905130855 82 65 0.0 2.0 0.00 0.00 0.00 76 1015.0
20260905130354 82 118 1.0 1.0 0.00 0.00 0.00 74 1015.0
20260905125849 82 155 1.0 2.0 0.00 0.00 0.00 75 1015.3
20260905125344 82 122 0.0 1.0 0.00 0.00 0.00 77 1015.0
20260905124840 81 126 0.0 2.0 0.00 0.00 0.00 77 1015.2
20260905124336 81 124 0.0 1.0 0.00 0.00 0.00 78 1015.2
20260905123836 80 124 0.0 0.0 0.00 0.00 0.00 79 1015.1
20260905123333 80 185 1.0 1.0 0.00 0.00 0.00 80 1015.1
20260905122832 79 283 1.0 2.0 0.00 0.00 0.00 81 1015.0
20260905122332 79 23 1.0 1.0 0.00 0.00 0.00 81 1014.9
20260905121827 79 29 0.0 1.0 0.00 0.00 0.00 82 1015.0
20260905121324 78 255 0.0 1.0 0.00 0.00 0.00 83 1014.8
20260905120823 78 161 0.0 1.0 0.00 0.00 0.00 83 1014.8
20260905120323 78 161 0.0 0.0 0.00 0.00 0.00 84 1014.9
20260905115818 78 163 0.0 1.0 0.00 0.00 0.00 84 1015.0
20260905115317 77 165 0.0 2.0 0.00 0.00 0.00 84 1015.1
20260905114817 77 166 0.0 0.0 0.00 0.00 0.00 85 1014.8
20260905114316 77 166 0.0 0.0 0.00 0.00 0.00 85 1014.7
20260905113816 77 166 0.0 0.0 0.00 0.00 0.00 85 1014.6
20260905113312 77 165 0.0 1.0 0.00 0.00 0.00 86 1014.6
20260905112807 76 166 0.0 1.0 0.00 0.00 0.00 87 1014.6
20260905112305 76 165 0.0 0.0 0.00 0.00 0.00 87 1014.6
20260905111757 76 165 0.0 0.0 0.00 0.00 0.00 87 1014.4
20260905111257 76 165 0.0 0.0 0.00 0.00 0.00 87 1014.4
20260905110756 76 165 0.0 0.0 0.00 0.00 0.00 87 1014.1
20260905110250 76 165 0.0 0.0 0.00 0.00 0.00 87 1014.0
20260905105746 76 165 0.0 0.0 0.00 0.00 0.00 87 1014.0
20260905105245 75 165 0.0 0.0 0.00 0.00 0.00 87 1013.8
20260905104739 76 165 0.0 0.0 0.00 0.00 0.00 87 1013.8
20260905104236 76 165 0.0 0.0 0.00 0.00 0.00 86 1014.0
20260905103730 76 165 0.0 0.0 0.00 0.00 0.00 86 1013.7
20260905103226 76 165 0.0 0.0 0.00 0.00 0.00 86 1013.7
20260905102721 76 165 0.0 0.0 0.00 0.00 0.00 85 1013.7
20260905102218 76 165 0.0 0.0 0.00 0.00 0.00 85 1013.7
20260905101717 76 165 0.0 0.0 0.00 0.00 0.00 85 1013.6
20260905101215 77 165 0.0 0.0 0.00 0.00 0.00 84 1013.6
20260905100711 77 165 0.0 0.0 0.00 0.00 0.00 84 1013.5
20260905100206 77 165 0.0 0.0 0.00 0.00 0.00 83 1013.5
20260905095706 77 165 0.0 0.0 0.00 0.00 0.00 84 1013.2
20260905095201 77 165 0.0 0.0 0.00 0.00 0.00 84 1013.3
20260905094701 77 165 0.0 0.0 0.00 0.00 0.00 83 1013.5
20260905094200 77 165 0.0 0.0 0.00 0.00 0.00 83 1013.3
20260905093655 77 165 0.0 0.0 0.00 0.00 0.00 83 1013.5
20260905093151 77 165 0.0 0.0 0.00 0.00 0.00 83 1013.4
20260905092646 77 165 0.0 0.0 0.00 0.00 0.00 83 1013.5
20260905092142 77 165 0.0 0.0 0.00 0.00 0.00 82 1013.6
20260905091642 78 165 0.0 0.0 0.00 0.00 0.00 82 1013.4
20260905091141 78 165 0.0 0.0 0.00 0.00 0.00 81 1013.6
20260905090636 78 166 0.0 0.0 0.00 0.00 0.00 80 1013.4
20260905090132 78 166 0.0 0.0 0.00 0.00 0.00 80 1013.5
20260905085630 78 166 0.0 0.0 0.00 0.00 0.00 80 1013.6
20260905085126 78 165 0.0 0.0 0.00 0.00 0.00 79 1013.7
20260905084625 79 165 0.0 0.0 0.00 0.00 0.00 79 1013.6
20260905084121 79 165 0.0 0.0 0.00 0.00 0.00 78 1013.6
20260905083620 79 165 1.0 1.0 0.00 0.00 0.00 78 1013.7
20260905083117 79 165 0.0 1.0 0.00 0.00 0.00 78 1013.8
20260905082612 79 165 0.0 0.0 0.00 0.00 0.00 78 1013.9
20260905082108 79 165 0.0 0.0 0.00 0.00 0.00 77 1013.8
20260905081608 80 165 0.0 1.0 0.00 0.00 0.00 77 1013.9
20260905081103 80 165 1.0 1.0 0.00 0.00 0.00 77 1013.8
20260905080602 80 165 0.0 1.0 0.00 0.00 0.00 76 1014.1
20260905080052 80 165 1.0 1.0 0.00 0.00 0.00 76 1014.2
20260905075551 80 161 1.0 1.0 0.00 0.00 0.00 76 1014.2
20260905075050 80 157 0.0 1.0 0.00 0.00 0.00 76 1014.2
20260905074550 80 158 1.0 1.0 0.00 0.00 0.00 75 1014.1
20260905074046 80 122 0.0 1.0 0.00 0.00 0.00 76 1014.3
20260905073541 80 90 0.0 1.0 0.00 0.00 0.00 76 1014.2
20260905073037 80 77 0.0 0.0 0.00 0.00 0.00 75 1014.2
20260905072536 80 77 0.0 0.0 0.00 0.00 0.00 76 1014.4
20260905072032 80 77 0.0 0.0 0.00 0.00 0.00 76 1014.2
20260905071528 80 77 0.0 0.0 0.00 0.00 0.00 76 1014.3
20260905071028 80 77 0.0 0.0 0.00 0.00 0.00 75 1014.2
20260905070523 80 77 0.0 0.0 0.00 0.00 0.00 75 1014.5
20260905070019 80 77 0.0 0.0 0.00 0.00 0.00 75 1014.3
20260905065517 80 77 0.0 0.0 0.00 0.00 0.00 74 1014.4
20260905065012 80 77 0.0 0.0 0.00 0.00 0.00 74 1014.6